Погода в Махровке

Россия / Воронежская область     51°33′13″N   42°23′20″E
темп.,
°C
ветер,
м/с
пор.,
м/с
влажн.,
%
обл.,
%
осадки,
мм/ч
давл.,
гПа
погр.,
м
19 апреля, пн
пн1900:00+9ссз236596 0.0 101863
03:00+9ссв2366100 0.0 101751
06:00+9с356563 0.0 101781
09:00+13ссв215151 0.0 1016603
12:00+15св2245100 0.1 10151782
15:00+14всв5560100 0.8 10151188
18:00+11всв5878100 0.6 1016626
21:00+9в6108281 1.0 1017587
20 апреля, вт
вт2000:00+9в588789 0.2 1016544
03:00+7в699194 1.4 1015482
06:00+6в61189100 0.1 1015477
09:00+7в71389100 0.2 1015584
12:00+7в91590100 0.4 1013622
15:00+6в112091100 3.7 1011673
18:00+7вюв142590100 6.3 1006893
21:00+10юв142390100 9.4 10051061
21 апреля, ср
ср2100:00+13ююв11198347 4.8 1003859
03:00+10ю111783100 6.4 1004905
06:00+9ю101788100 0.4 1006883
09:00+6юз71290100 0.6 1010840
12:00+9ююз6980100 0.1 1013934
15:00+12юз5768100 0.3 10141120
18:00+12з237497 0.1 101698
21:00+9вюв2281100 0.1 101714
22 апреля, чт
чт2200:00+8ю338930 0.2 101847
03:00+7юз33925 0.2 101847
06:00+7ююз229023 0.0 102045
09:00+12ююз337189 0.0 1021507
12:00+15юз455273 0.1 10211672
15:00+15зюз3447100 0.2 10211621
18:00+14зсз225893 0.0 102153
21:00+11ссв1160100 0.0 102211
23 апреля, пт
пт2300:00+11вюв226688 0.0 102217
03:00+10ююв117498 0.0 102125
06:00+10ю227998 0.0 102143
09:00+14юз346362 0.1 1021543
12:00+16ююв335172 1.1 10201550
15:00+16ююв2352100 3.7 10191363
18:00+15вюв116232 1.1 101856
21:00+11вюв33775 1.9 101737